Tracking 25963 objects as of 13-Aug-2022
HD Live streaming from Space Station
objects crossing your sky now

STARLINK-4022

Track STARLINK-4022 now!
10-day predictions
STARLINK-4022 is classified as:


NORAD ID: 52629
Int'l Code: 2022-052AH
Perigee: 545.8 km
Apogee: 547.7 km
Inclination: 53.2 °
Period: 95.4 minutes
Semi major axis: 6917 km
RCS: Unknown
Launch date: May 14, 2022
Source: United States (US)
Launch site: AIR FORCE EASTERN TEST RANGE (AFETR)
aabbcc
Your satellite tracking list
Your tracking list is empty




NASA's NSSDC Master Catalog

Two Line Element Set (TLE):
1 52629U 22052AH  22224.58334491 -.00040231  00000-0 -25217-2 0  9995
2 52629  53.2186   7.9569 0001369  68.4870 289.2781 15.08871681  1305
Source of the keplerian elements: AFSPC